AirNav   Everest Fuels
 
 1667 users online  

2MA5 Compaq Powdermill Road Heliport
Maynard, Massachusetts, USA

GOING TO MAYNARD?


FAA INFORMATION EFFECTIVE 10 SEPTEMBER 2020

Location

FAA Identifier: 2MA5
Lat/Long: 42-25-40.3360N 071-27-27.2260W
42-25.672267N 071-27.453767W
42.4278711,-71.4575628
(estimated)
Elevation: 175 ft. / 53 m (estimated)
Variation: 16W (1980)
From city: 6 miles E of MAYNARD, MA
Time zone: UTC -4 (UTC -5 during Standard Time)
Zip code: 01754

Heliport Operations

Heliport use: Private use. Permission required prior to landing
Activation date: 10/1986
Control tower: no
ARTCC: BOSTON CENTER
FSS: BRIDGEPORT FLIGHT SERVICE STATION
Attendance: UNATNDD
Wind indicator: yes
Segmented circle: no

Heliport Communications

UNICOM: 123.05
WX ASOS at BED (8 nm E): 124.6 (781-274-9733)
WX ASOS at FIT (15 nm NW): 135.175 (978-343-9121)
WX ASOS at OWD (19 nm SE): 119.95 (781-762-4314)

Nearby radio navigation aids

VOR radial/distance  VOR name  Freq  Var
BOSr298/21.2BOSTON VOR/DME112.7016W
LWMr236/24.7LAWRENCE VOR/DME112.5015W
MHTr203/26.7MANCHESTER VOR/DME114.4015W
GDMr119/27.5GARDNER VOR/DME110.6014W
PUTr045/33.1PUTNAM VOR/DME117.4014W

Heliport Services

Runway Information

Helipad H1

Dimensions: 60 x 24 ft. / 18 x 7 m
Surface: concrete
Traffic pattern: leftleft

Heliport Ownership and Management from official FAA records

Ownership: Privately-owned
Owner: COMPAQ COMP CORP MS2-3/C17
111 POWDERMILL RD
MAYNARD, MA 01754
Phone 978-493-6163
Manager: JOE POZNICK MS2-3/C17
111 POWDERMILL RD
MAYNARD, MA 01754
Phone 978-493-8401

Additional Remarks

FOR CD CTC BOSTON APCH AT 603-594-5554.

Instrument Procedures

There are no published instrument procedures at 2MA5.

Some nearby airports with instrument procedures:

6B6 - Minute Man Air Field (3 nm NW)
KBED - Laurence G Hanscom Field Airport (8 nm E)
KFIT - Fitchburg Municipal Airport (15 nm NW)
KOWD - Norwood Memorial Airport (19 nm SE)
1B6 - Hopedale Industrial Park Airport (19 nm S)
 
Loc | Ops | Rwys | IFR | FBO | Links
Com | Nav | Svcs | Stats | Notes
Area around 2MA5 (Compaq Powdermill Road Heliport)
 
Road maps at: MapQuest Bing Google
 
Aerial photo
No photo
 
Sectional chart

 
Airport distance calculator
Flying to Compaq Powdermill Road Heliport? Find the distance to fly.

From to 2MA5

Sunrise and sunset
Times for 29-Sep-2020
 Local
(UTC-4)
 Zulu
(UTC)
Morning civil twilight06:1510:15
Sunrise06:4310:43
Sunset18:2922:29
Evening civil twilight18:5722:57

Current date and time
Zulu (UTC)  29-Sep-2020 20:35:44
Local (UTC-4)  29-Sep-2020 16:35:44
 
METAR
KBED 
7nm E 
291951Z 20009KT 10SM BKN090 25/17 A2984 RMK AO2 SLP115 T02500172
KFIT 
15nm NW 
291952Z AUTO 18009G18KT 10SM BKN037 OVC050 26/17 A2985 RMK AO2 SLP106 T02560167
KOWD 
20nm SE 
291953Z 19009KT 10SM CLR 24/17 A2986 RMK AO2 SLP111 T02440172
KMQE 
20nm SE 
291951Z AUTO 18013G18KT 22/17 A2987 RMK AO1 SLP123 T02220172
KBOS 
20nm E 
291954Z 20010KT 10SM FEW036 SCT100 BKN140 BKN250 23/17 A2986 RMK AO2 RAE08 SLP111 P0000 T02330172
TAF
KBED 
7nm E 
291729Z 2918/3018 19008KT P6SM FEW035 FM300200 17007KT 5SM BR OVC015 FM300500 16008KT 5SM -RA BR OVC008 FM301100 18016G38KT 3SM -RA BR OVC008 WS020/18050KT FM301400 21012G31KT 5SM -RA BR OVC015 FM301600 24010G24KT P6SM VCSH BKN030
KBOS 
20nm E 
291729Z 2918/3024 16007KT P6SM FEW030 BKN250 FM300200 17008KT 5SM BR OVC010 FM300800 16013G28KT 3SM -RA BR OVC008 WS020/19040KT FM301100 20016G35KT 3SM -RA BR OVC015 FM301600 23013G25KT P6SM VCSH BKN020 FM302200 24010G17KT P6SM SCT030
NOTAMs
Click for the latest NOTAMs
NOTAMs are issued by the DoD/FAA and will open in a separate window not controlled by AirNav.

 

 
 

Would you like to see your business listed on this page?

 If your business provides an interesting product or service to pilots, flight crews, aircraft, or users of the Compaq Powdermill Road Heliport, you should consider listing it here.  To start the listing process, click on the button below
 
Add a business
 

Other Pages about Compaq Powdermill Road Heliport

Update a link
 
Copyright © AirNav, LLC. All rights reserved. Privacy Policy  Contact